When you browse on this site, cookies collect data to enhance your experience and personalize the content and advertising you see.
Visit our Privacy Policy to learn more. By continuing to use the site, you agree to this use of cookies and data.
  • In France
  • List of Countries
  • For 7 days
  • Water Temperature
  • Weather Map
  • Weather Widgets
  • user-avatar
    Login

    Hourly Weather Erfurt

    Today, 13 December, Friday

    Time Temperature Precipitation Wind Pressure Humidity
    00:00 -1°C° 0 mm 4 mps 728 mmHg 87%
    01:00 -2°C° 0 mm 4 mps 727 mmHg 87%
    02:00 -2°C° 0 mm 4 mps 725 mmHg 87%
    03:00 -2°C° 0 mm 4 mps 724 mmHg 86%
    04:00 -2°C° 0 mm 5 mps 723 mmHg 85%
    05:00 -2°C° 0 mm 5 mps 722 mmHg 84%
    06:00 -1°C° 0 mm 5 mps 721 mmHg 82%
    07:00 -1°C° 0 mm 5 mps 720 mmHg 80%
    08:00 0°C° 0 mm 4 mps 719 mmHg 78%
    09:00 0°C° 0 mm 4 mps 719 mmHg 76%
    10:00 +1°C° 0 mm 4 mps 718 mmHg 74%
    11:00 +1°C° 0.1 mm 5 mps 718 mmHg 76%
    12:00 +1°C° 0.1 mm 5 mps 718 mmHg 77%
    13:00 +1°C° 0.1 mm 6 mps 718 mmHg 79%
    14:00 +1°C° 0.1 mm 5 mps 717 mmHg 82%
    15:00 +1°C° 0.1 mm 5 mps 717 mmHg 86%
    16:00 +1°C° 0.1 mm 4 mps 717 mmHg 90%
    17:00 +1°C° 0.1 mm 4 mps 718 mmHg 91%
    18:00 +3°C° 0.1 mm 4 mps 718 mmHg 92%
    19:00 +3°C° 0.1 mm 4 mps 718 mmHg 93%
    20:00 +3°C° 0.1 mm 4 mps 719 mmHg 93%
    21:00 +1°C° 0.1 mm 4 mps 720 mmHg 94%
    22:00 +1°C° 0.1 mm 4 mps 720 mmHg 95%
    23:00 +3°C° 0.4 mm 4 mps 721 mmHg 95%

    Tomorrow, 14 December, Saturday

    Time Temperature Precipitation Wind Pressure Humidity
    00:00 +2°C° 0.4 mm 5 mps 722 mmHg 95%
    01:00 +2°C° 0.4 mm 6 mps 723 mmHg 95%
    02:00 +2°C° 0.2 mm 6 mps 723 mmHg 91%
    03:00 +2°C° 0.2 mm 7 mps 724 mmHg 86%
    04:00 +2°C° 0.2 mm 7 mps 724 mmHg 82%
    05:00 0°C° 0 mm 7 mps 725 mmHg 82%
    06:00 +1°C° 0 mm 6 mps 725 mmHg 82%
    07:00 +1°C° 0 mm 6 mps 725 mmHg 82%
    08:00 +2°C° 0.2 mm 7 mps 725 mmHg 84%
    09:00 +2°C° 0.2 mm 7 mps 724 mmHg 85%
    10:00 +2°C° 0.2 mm 8 mps 724 mmHg 87%
    11:00 +2°C° 0.2 mm 9 mps 725 mmHg 83%
    12:00 +3°C° 0.2 mm 10 mps 725 mmHg 79%
    13:00 +4°C° 0.2 mm 12 mps 726 mmHg 75%
    14:00 +3°C° 0 mm 10 mps 727 mmHg 73%
    15:00 +3°C° 0 mm 9 mps 729 mmHg 70%
    16:00 +2°C° 0 mm 8 mps 730 mmHg 67%
    17:00 +3°C° 0.2 mm 7 mps 731 mmHg 75%
    18:00 +3°C° 0.2 mm 6 mps 731 mmHg 83%
    19:00 +4°C° 0.2 mm 4 mps 732 mmHg 91%
    20:00 +3°C° 0.3 mm 5 mps 732 mmHg 89%
    21:00 +3°C° 0.3 mm 6 mps 732 mmHg 87%
    22:00 +4°C° 0.3 mm 6 mps 733 mmHg 85%
    23:00 +5°C° 0 mm 5 mps 733 mmHg 85%

    Day after tomorrow, 15 December, Sunday

    Time Temperature Precipitation Wind Pressure Humidity
    00:00 +3°C° 0 mm 5 mps 733 mmHg 85%
    01:00 +4°C° 0 mm 4 mps 734 mmHg 86%
    02:00 +3°C° 0 mm 5 mps 733 mmHg 86%
    03:00 +3°C° 0 mm 5 mps 733 mmHg 86%
    04:00 +5°C° 0 mm 5 mps 732 mmHg 85%
    05:00 +5°C° 1 mm 6 mps 732 mmHg 86%
    06:00 +6°C° 1 mm 7 mps 731 mmHg 87%
    07:00 +8°C° 1 mm 7 mps 731 mmHg 88%
    08:00 +6°C° 0.6 mm 7 mps 732 mmHg 84%
    09:00 +6°C° 0.6 mm 8 mps 734 mmHg 80%
    10:00 +6°C° 0.6 mm 8 mps 735 mmHg 75%
    11:00 +5°C° 0 mm 8 mps 736 mmHg 70%
    12:00 +5°C° 0 mm 7 mps 736 mmHg 65%
    13:00 +5°C° 0 mm 7 mps 737 mmHg 61%
    14:00 +4°C° 0 mm 6 mps 738 mmHg 64%
    15:00 +5°C° 0 mm 5 mps 738 mmHg 67%
    16:00 +4°C° 0 mm 4 mps 738 mmHg 71%
    17:00 +4°C° 0 mm 4 mps 739 mmHg 74%
    18:00 +4°C° 0 mm 4 mps 739 mmHg 77%
    19:00 +5°C° 0 mm 4 mps 740 mmHg 80%
    20:00 +4°C° 0 mm 4 mps 740 mmHg 82%
    21:00 +4°C° 0 mm 4 mps 740 mmHg 83%
    22:00 +4°C° 0 mm 4 mps 740 mmHg 85%
    23:00 +5°C° 0 mm 4 mps 740 mmHg 86%

    16 December, Monday

    Time Temperature Precipitation Wind Pressure Humidity
    00:00 +5°C° 0 mm 5 mps 740 mmHg 86%
    01:00 +5°C° 0 mm 5 mps 740 mmHg 87%
    02:00 +5°C° 0.1 mm 4 mps 740 mmHg 89%
    03:00 +5°C° 0.1 mm 4 mps 740 mmHg 90%
    04:00 +7°C° 0.1 mm 3 mps 740 mmHg 91%
    05:00 +7°C° 0 mm 3 mps 740 mmHg 91%
    06:00 +7°C° 0 mm 3 mps 740 mmHg 91%
    07:00 +8°C° 0 mm 3 mps 740 mmHg 91%
    08:00 +8°C° 0.1 mm 3 mps 740 mmHg 91%
    09:00 +8°C° 0.1 mm 3 mps 740 mmHg 91%
    10:00 +8°C° 0.1 mm 3 mps 741 mmHg 91%
    11:00 +8°C° 0.3 mm 3 mps 740 mmHg 86%
    12:00 +8°C° 0.3 mm 4 mps 740 mmHg 81%
    13:00 +8°C° 0.3 mm 4 mps 740 mmHg 76%
    14:00 +8°C° 0 mm 4 mps 740 mmHg 76%
    15:00 +8°C° 0 mm 3 mps 740 mmHg 76%
    16:00 +8°C° 0 mm 3 mps 739 mmHg 77%
    17:00 +8°C° 0 mm 3 mps 739 mmHg 76%
    18:00 +8°C° 0 mm 3 mps 739 mmHg 75%
    19:00 +8°C° 0 mm 3 mps 739 mmHg 75%
    20:00 +7°C° 0 mm 3 mps 739 mmHg 74%
    21:00 +7°C° 0 mm 3 mps 739 mmHg 74%
    22:00 +7°C° 0 mm 2 mps 739 mmHg 73%
    23:00 +7°C° 0 mm 3 mps 739 mmHg 73%

    17 December, Tuesday

    Time Temperature Precipitation Wind Pressure Humidity
    00:00 +5°C° 0 mm 3 mps 739 mmHg 72%
    01:00 +5°C° 0 mm 3 mps 739 mmHg 72%
    02:00 +5°C° 0 mm 3 mps 739 mmHg 72%
    03:00 +5°C° 0 mm 3 mps 739 mmHg 73%
    04:00 +6°C° 0 mm 2 mps 739 mmHg 74%
    05:00 +7°C° 0 mm 3 mps 739 mmHg 74%
    06:00 +7°C° 0 mm 3 mps 739 mmHg 74%
    07:00 +7°C° 0 mm 3 mps 739 mmHg 73%
    08:00 +7°C° 0 mm 3 mps 740 mmHg 73%
    09:00 +8°C° 0 mm 3 mps 740 mmHg 72%
    10:00 +8°C° 0 mm 3 mps 740 mmHg 71%
    11:00 +8°C° 0 mm 4 mps 740 mmHg 70%
    12:00 +10°C° 0 mm 4 mps 740 mmHg 69%
    13:00 +11°C° 0 mm 4 mps 740 mmHg 67%
    14:00 +10°C° 0 mm 4 mps 740 mmHg 69%
    15:00 +10°C° 0 mm 4 mps 741 mmHg 71%
    16:00 +8°C° 0 mm 4 mps 741 mmHg 73%
    17:00 +8°C° 0 mm 4 mps 741 mmHg 73%
    18:00 +8°C° 0 mm 4 mps 741 mmHg 74%
    19:00 +8°C° 0 mm 5 mps 741 mmHg 74%
    20:00 +8°C° 0 mm 5 mps 742 mmHg 74%
    21:00 +8°C° 0 mm 5 mps 742 mmHg 75%
    22:00 +8°C° 0 mm 5 mps 742 mmHg 75%
    23:00 +8°C° 0 mm 5 mps 743 mmHg 76%

    18 December, Wednesday

    Time Temperature Precipitation Wind Pressure Humidity
    00:00 +8°C° 0 mm 5 mps 743 mmHg 77%
    01:00 +8°C° 0 mm 5 mps 744 mmHg 79%
    02:00 +7°C° 0 mm 5 mps 744 mmHg 82%
    03:00 +7°C° 0 mm 4 mps 745 mmHg 86%
    04:00 +7°C° 0 mm 4 mps 745 mmHg 89%
    05:00 +8°C° 0 mm 3 mps 746 mmHg 89%
    06:00 +8°C° 0 mm 2 mps 747 mmHg 90%
    07:00 +8°C° 0 mm 1 mps 747 mmHg 90%
    08:00 +8°C° 0 mm 1 mps 748 mmHg 89%
    09:00 +8°C° 0 mm 1 mps 748 mmHg 88%
    10:00 +7°C° 0 mm 0 mps 749 mmHg 87%
    11:00 +9°C° 0 mm 1 mps 749 mmHg 85%
    12:00 +9°C° 0 mm 1 mps 749 mmHg 84%
    13:00 +8°C° 0 mm 2 mps 749 mmHg 82%
    14:00 +8°C° 0 mm 2 mps 749 mmHg 84%
    15:00 +8°C° 0 mm 2 mps 749 mmHg 86%
    16:00 +8°C° 0 mm 2 mps 749 mmHg 88%
    17:00 +7°C° 0 mm 2 mps 749 mmHg 89%
    18:00 +8°C° 0 mm 1 mps 750 mmHg 90%
    19:00 +8°C° 0 mm 1 mps 750 mmHg 91%
    20:00 +8°C° 0 mm 1 mps 750 mmHg 91%
    21:00 +8°C° 0 mm 1 mps 750 mmHg 92%
    22:00 +6°C° 0 mm 2 mps 750 mmHg 93%
    23:00 +7°C° 0 mm 1 mps 750 mmHg 94%
    Show more